| time (UTC) | temp F | wind direction | speed MPH | gust MPH | rain 1hr in | rain 24hr in | rain mn in | humidity % | barometer mb |
| 20260502185526 | 57 | 0 | 0.0 | 3.0 | 0.00 | 0.02 | 0.01 | 45 | 1013.0 |
| 20260502185322 | 58 | 84 | 0.0 | 3.0 | 0.00 | 0.02 | 0.01 | 46 | 1012.7 |
| 20260502185025 | 57 | 0 | 0.0 | 3.0 | 0.00 | 0.02 | 0.01 | 45 | 1013.0 |
| 20260502184834 | 58 | 343 | 0.0 | 3.0 | 0.00 | 0.02 | 0.01 | 50 | 1012.7 |
| 20260502184539 | 57 | 0 | 0.0 | 3.0 | 0.00 | 0.02 | 0.01 | 48 | 1013.1 |
| 20260502184319 | 58 | 58 | 1.0 | 3.0 | 0.00 | 0.02 | 0.01 | 52 | 1012.8 |
| 20260502184025 | 57 | 0 | 0.0 | 2.0 | 0.00 | 0.02 | 0.01 | 49 | 1013.1 |
| 20260502183833 | 57 | 82 | 0.0 | 2.0 | 0.00 | 0.02 | 0.01 | 50 | 1012.8 |
| 20260502183526 | 57 | 0 | 0.0 | 3.0 | 0.00 | 0.02 | 0.01 | 46 | 1013.3 |
| 20260502183327 | 58 | 82 | 0.0 | 3.0 | 0.00 | 0.02 | 0.01 | 50 | 1013.0 |
| 20260502183044 | 57 | 0 | 0.0 | 3.0 | 0.00 | 0.02 | 0.01 | 50 | 1013.4 |
| 20260502182836 | 58 | 61 | 0.0 | 3.0 | 0.00 | 0.02 | 0.01 | 48 | 1013.1 |
| 20260502182529 | 57 | 64 | 0.0 | 1.0 | 0.00 | 0.02 | 0.01 | 48 | 1013.5 |
| 20260502182324 | 58 | 73 | 0.0 | 1.0 | 0.00 | 0.02 | 0.01 | 47 | 1013.2 |
| 20260502182026 | 57 | 0 | 0.0 | 1.0 | 0.00 | 0.02 | 0.01 | 52 | 1013.5 |
| 20260502181816 | 58 | 144 | 0.0 | 0.0 | 0.00 | 0.02 | 0.01 | 51 | 1013.2 |
| 20260502181543 | 57 | 0 | 0.0 | 0.0 | 0.00 | 0.02 | 0.01 | 47 | 1013.5 |
| 20260502181348 | 57 | 162 | 0.0 | 0.0 | 0.00 | 0.02 | 0.01 | 46 | 1013.3 |
| 20260502181026 | 57 | 0 | 0.0 | 4.0 | 0.00 | 0.02 | 0.01 | 48 | 1013.6 |
| 20260502180821 | 57 | 52 | 0.0 | 3.0 | 0.00 | 0.02 | 0.01 | 48 | 1013.3 |
| 20260502180526 | 57 | 0 | 0.0 | 4.0 | 0.00 | 0.02 | 0.01 | 46 | 1013.7 |
| 20260502180315 | 57 | 36 | 0.0 | 4.0 | 0.00 | 0.02 | 0.01 | 49 | 1013.4 |
| 20260502170316 | 57 | 216 | 0.0 | 3.0 | 0.00 | 0.02 | 0.01 | 51 | 1013.7 |
| 20260502164330 | 56 | 360 | 0.0 | 4.0 | 0.00 | 0.02 | 0.01 | 52 | 1014.0 |
| 20260502164026 | 55 | 0 | 0.0 | 0.0 | 0.00 | 0.02 | 0.01 | 52 | 1014.2 |
| 20260502163823 | 55 | 316 | 0.0 | 0.0 | 0.00 | 0.02 | 0.01 | 52 | 1014.0 |
| 20260502163526 | 54 | 0 | 0.0 | 4.0 | 0.00 | 0.02 | 0.01 | 51 | 1014.4 |
| 20260502163317 | 55 | 8 | 0.0 | 4.0 | 0.00 | 0.02 | 0.01 | 51 | 1014.1 |
| 20260502163039 | 54 | 0 | 0.0 | 4.0 | 0.00 | 0.02 | 0.01 | 52 | 1014.5 |
| 20260502162834 | 55 | 220 | 0.0 | 4.0 | 0.00 | 0.02 | 0.01 | 54 | 1014.2 |
| 20260502162529 | 54 | 0 | 0.0 | 4.0 | 0.00 | 0.02 | 0.01 | 50 | 1014.5 |
| 20260502162325 | 55 | 259 | 0.0 | 3.0 | 0.00 | 0.02 | 0.01 | 51 | 1014.1 |
| 20260502162026 | 54 | 0 | 0.0 | 3.0 | 0.00 | 0.02 | 0.01 | 51 | 1014.4 |
| 20260502161819 | 55 | 259 | 0.0 | 3.0 | 0.00 | 0.02 | 0.01 | 50 | 1014.1 |
| 20260502161539 | 55 | 0 | 0.0 | 3.0 | 0.00 | 0.02 | 0.01 | 53 | 1014.5 |
| 20260502161312 | 55 | 42 | 0.0 | 3.0 | 0.00 | 0.02 | 0.01 | 53 | 1014.2 |
| 20260502161029 | 55 | 0 | 0.0 | 3.0 | 0.00 | 0.02 | 0.01 | 54 | 1014.5 |
| 20260502160828 | 55 | 90 | 0.0 | 3.0 | 0.00 | 0.02 | 0.01 | 55 | 1014.3 |
| 20260502160530 | 55 | 0 | 0.0 | 3.0 | 0.00 | 0.02 | 0.01 | 52 | 1014.5 |
| 20260502160321 | 55 | 217 | 0.0 | 3.0 | 0.00 | 0.02 | 0.01 | 52 | 1014.3 |
| 20260502152334 | 54 | 17 | 2.0 | 10.0 | 0.01 | 0.02 | 0.01 | 55 | 1014.4 |
| 20260502152022 | 54 | 0 | 0.0 | 3.0 | 0.01 | 0.02 | 0.01 | 55 | 1014.7 |
| 20260502151827 | 54 | 86 | 0.0 | 3.0 | 0.01 | 0.02 | 0.01 | 59 | 1014.4 |
| 20260502151546 | 53 | 0 | 0.0 | 4.0 | 0.01 | 0.02 | 0.01 | 56 | 1014.7 |
| 20260502151322 | 54 | 9 | 0.0 | 4.0 | 0.01 | 0.02 | 0.01 | 56 | 1014.4 |
| 20260502151026 | 53 | 0 | 0.0 | 5.0 | 0.01 | 0.02 | 0.01 | 57 | 1014.9 |
| 20260502150814 | 53 | 145 | 0.0 | 5.0 | 0.01 | 0.02 | 0.01 | 59 | 1014.6 |
| 20260502150526 | 53 | 0 | 1.0 | 5.0 | 0.01 | 0.02 | 0.01 | 58 | 1014.9 |
| 20260502150330 | 53 | 4 | 2.0 | 5.0 | 0.01 | 0.02 | 0.01 | 58 | 1014.6 |
| 20260502130523 | 48 | 0 | 0.0 | 6.0 | 0.00 | 0.01 | 0.00 | 69 | 1014.7 |
| 20260502130322 | 48 | 54 | 0.0 | 5.0 | 0.00 | 0.01 | 0.00 | 70 | 1014.4 |
| 20260502123523 | 47 | 0 | 0.0 | 3.0 | 0.00 | 0.01 | 0.00 | 72 | 1014.8 |
| 20260502123321 | 47 | 19 | 1.0 | 3.0 | 0.00 | 0.01 | 0.00 | 72 | 1014.6 |
| 20260502123041 | 47 | 0 | 0.0 | 2.0 | 0.00 | 0.01 | 0.00 | 71 | 1014.8 |
| 20260502122833 | 47 | 5 | 0.0 | 2.0 | 0.00 | 0.01 | 0.00 | 72 | 1014.5 |
| 20260502122522 | 47 | 0 | 0.0 | 3.0 | 0.00 | 0.01 | 0.00 | 73 | 1014.8 |
| 20260502122346 | 47 | 358 | 0.0 | 2.0 | 0.00 | 0.01 | 0.00 | 73 | 1014.5 |
| 20260502122022 | 47 | 0 | 0.0 | 3.0 | 0.00 | 0.01 | 0.00 | 73 | 1014.7 |
| 20260502121818 | 47 | 360 | 0.0 | 3.0 | 0.00 | 0.01 | 0.00 | 73 | 1014.4 |
| 20260502121541 | 46 | 0 | 0.0 | 3.0 | 0.00 | 0.01 | 0.00 | 74 | 1014.7 |
| 20260502121351 | 47 | 22 | 0.0 | 3.0 | 0.00 | 0.01 | 0.00 | 74 | 1014.4 |
| 20260502121022 | 46 | 0 | 0.0 | 3.0 | 0.00 | 0.01 | 0.00 | 74 | 1014.8 |
| 20260502120826 | 47 | 37 | 0.0 | 2.0 | 0.00 | 0.01 | 0.00 | 75 | 1014.4 |
| 20260502120521 | 46 | 0 | 0.0 | 2.0 | 0.00 | 0.01 | 0.00 | 75 | 1014.7 |
| 20260502120344 | 46 | 321 | 0.0 | 2.0 | 0.00 | 0.01 | 0.00 | 75 | 1014.5 |
| 20260502115816 | 46 | 11 | 0.0 | 5.0 | 0.00 | 0.01 | 0.00 | 75 | 1014.5 |
| 20260502115521 | 46 | 0 | 0.0 | 5.0 | 0.00 | 0.01 | 0.00 | 73 | 1014.6 |
| 20260502115329 | 46 | 356 | 2.0 | 5.0 | 0.00 | 0.01 | 0.00 | 74 | 1014.3 |
| 20260502115024 | 46 | 0 | 0.0 | 7.0 | 0.00 | 0.01 | 0.00 | 73 | 1014.6 |
| 20260502114843 | 46 | 342 | 1.0 | 6.0 | 0.00 | 0.01 | 0.00 | 74 | 1014.2 |
| 20260502114559 | 46 | 0 | 0.0 | 7.0 | 0.00 | 0.01 | 0.00 | 75 | 1014.7 |
| 20260502114355 | 46 | 0.0 | 0.0 | 0.00 | 0.01 | 0.00 | 75 | 1014.4 | |
| 20260502114023 | 46 | 0 | 0.0 | 3.0 | 0.00 | 0.01 | 0.00 | 75 | 1014.7 |
| 20260502113826 | 46 | 0.0 | 0.0 | 0.00 | 0.01 | 0.00 | 76 | 1014.5 | |
| 20260502113524 | 46 | 0 | 0.0 | 8.0 | 0.00 | 0.01 | 0.00 | 74 | 1014.7 |
| 20260502113322 | 46 | 0.0 | 0.0 | 0.00 | 0.01 | 0.00 | 74 | 1014.4 | |
| 20260502113045 | 46 | 0 | 0.0 | 8.0 | 0.00 | 0.01 | 0.00 | 74 | 1014.7 |
| 20260502112523 | 46 | 0 | 0.0 | 7.0 | 0.00 | 0.01 | 0.00 | 74 | 1014.7 |
| 20260502112319 | 46 | 0.0 | 0.0 | 0.00 | 0.01 | 0.00 | 74 | 1014.4 | |
| 20260502112022 | 46 | 0 | 1.0 | 8.0 | 0.00 | 0.01 | 0.00 | 74 | 1014.7 |
| 20260502111815 | 46 | 0.0 | 0.0 | 0.00 | 0.01 | 0.00 | 74 | 1014.4 | |
| 20260502111538 | 46 | 0 | 1.0 | 8.0 | 0.00 | 0.01 | 0.00 | 74 | 1014.7 |
| 20260502111331 | 46 | 0.0 | 0.0 | 0.00 | 0.01 | 0.00 | 73 | 1014.3 | |
| 20260502111023 | 46 | 0 | 0.0 | 0.0 | 0.00 | 0.01 | 0.00 | 72 | 1014.7 |
| 20260502110828 | 47 | 0.0 | 0.0 | 0.00 | 0.01 | 0.00 | 73 | 1014.3 | |
| 20260502110522 | 46 | 0.0 | 0.0 | 0.00 | 0.01 | 0.00 | 72 | 1014.6 | |
| 20260502110313 | 46 | 0.0 | 0.0 | 0.00 | 0.01 | 0.00 | 72 | 1014.3 | |
| 20260502110043 | 46 | 0.0 | 0.0 | 0.00 | 0.01 | 0.00 | 72 | 1014.6 | |
| 20260502105827 | 47 | 0.0 | 0.0 | 0.00 | 0.01 | 0.00 | 72 | 1014.2 | |
| 20260502105522 | 46 | 0.0 | 0.0 | 0.00 | 0.01 | 0.00 | 71 | 1014.6 | |
| 20260502105328 | 47 | 0.0 | 0.0 | 0.00 | 0.01 | 0.00 | 72 | 1014.2 | |
| 20260502105022 | 46 | 0.0 | 0.0 | 0.00 | 0.01 | 0.00 | 71 | 1014.5 | |
| 20260502104823 | 47 | 0.0 | 0.0 | 0.00 | 0.01 | 0.00 | 72 | 1013.9 | |
| 20260502104544 | 46 | 0.0 | 0.0 | 0.00 | 0.01 | 0.00 | 71 | 1014.3 | |
| 20260502104320 | 47 | 0.0 | 0.0 | 0.00 | 0.01 | 0.00 | 71 | 1013.9 | |
| 20260502104022 | 46 | 0.0 | 0.0 | 0.00 | 0.01 | 0.00 | 70 | 1014.2 | |
| 20260502103816 | 47 | 0.0 | 0.0 | 0.00 | 0.01 | 0.00 | 71 | 1014.0 | |
| 20260502103522 | 46 | 0.0 | 0.0 | 0.00 | 0.01 | 0.00 | 70 | 1014.3 | |
| 20260502103331 | 47 | 0.0 | 0.0 | 0.00 | 0.01 | 0.00 | 70 | 1014.0 | |
| 20260502103039 | 47 | 0.0 | 0.0 | 0.00 | 0.01 | 0.00 | 70 | 1014.2 | |
| 20260502102823 | 47 | 0.0 | 0.0 | 0.00 | 0.01 | 0.00 | 70 | 1013.9 | |
| 20260502102522 | 47 | 0.0 | 0.0 | 0.00 | 0.01 | 0.00 | 69 | 1014.1 | |
| 20260502102335 | 47 | 0.0 | 0.0 | 0.00 | 0.01 | 0.00 | 70 | 1013.9 | |
| 20260502102022 | 47 | 0.0 | 0.0 | 0.00 | 0.01 | 0.00 | 71 | 1014.2 | |
| 20260502101826 | 47 | 0.0 | 0.0 | 0.00 | 0.01 | 0.00 | 71 | 1013.8 | |
| 20260502101555 | 47 | 0.0 | 0.0 | 0.00 | 0.01 | 0.00 | 71 | 1014.1 | |
| 20260502101321 | 48 | 0.0 | 0.0 | 0.00 | 0.01 | 0.00 | 72 | 1013.8 | |
| 20260502101022 | 47 | 0.0 | 0.0 | 0.00 | 0.01 | 0.00 | 72 | 1014.1 | |
| 20260502100855 | 48 | 0.0 | 0.0 | 0.00 | 0.01 | 0.00 | 73 | 1013.7 | |
| 20260502100522 | 47 | 0.0 | 0.0 | 0.00 | 0.01 | 0.00 | 73 | 1013.8 | |
| 20260502100316 | 48 | 0.0 | 0.0 | 0.00 | 0.01 | 0.00 | 73 | 1013.6 | |
| 20260502091315 | 49 | 0.0 | 0.0 | 0.00 | 0.01 | 0.00 | 71 | 1013.0 | |
| 20260502091025 | 48 | 0.0 | 0.0 | 0.00 | 0.01 | 0.00 | 72 | 1013.3 | |
| 20260502090830 | 49 | 0.0 | 0.0 | 0.00 | 0.01 | 0.00 | 73 | 1013.0 | |
| 20260502090527 | 48 | 0.0 | 0.0 | 0.00 | 0.01 | 0.00 | 72 | 1013.4 | |
| 20260502090325 | 49 | 0.0 | 0.0 | 0.00 | 0.01 | 0.00 | 74 | 1013.1 | |
| 20260502071332 | 52 | 0.0 | 0.0 | 0.00 | 0.01 | 0.00 | 75 | 1012.7 | |
| 20260502071023 | 51 | 0.0 | 0.0 | 0.00 | 0.01 | 0.00 | 74 | 1012.9 | |
| 20260502070826 | 52 | 0.0 | 0.0 | 0.00 | 0.01 | 0.00 | 76 | 1012.7 | |
| 20260502070523 | 51 | 0.0 | 0.0 | 0.00 | 0.01 | 0.00 | 75 | 1012.9 | |
| 20260502070320 | 52 | 0.0 | 0.0 | 0.00 | 0.01 | 0.00 | 75 | 1012.6 | |
| 20260502070043 | 51 | 0.0 | 0.0 | 0.00 | 0.01 | 0.00 | 75 | 1012.8 | |
| 20260502065834 | 52 | 0.0 | 0.0 | 0.00 | 0.01 | 0.00 | 75 | 1012.5 | |
| 20260502065525 | 52 | 0.0 | 0.0 | 0.00 | 0.01 | 0.00 | 75 | 1012.7 | |
| 20260502065327 | 52 | 0.0 | 0.0 | 0.00 | 0.01 | 0.00 | 75 | 1012.5 | |
| 20260502065025 | 52 | 0.0 | 0.0 | 0.00 | 0.01 | 0.00 | 74 | 1012.7 | |
| 20260502064824 | 52 | 0.0 | 0.0 | 0.00 | 0.01 | 0.00 | 75 | 1012.4 | |
| 20260502064607 | 52 | 0.0 | 0.0 | 0.00 | 0.01 | 0.00 | 75 | 1012.7 | |
| 20260502064325 | 52 | 0.0 | 0.0 | 0.00 | 0.01 | 0.00 | 75 | 1012.5 | |
| 20260502064024 | 52 | 0.0 | 0.0 | 0.00 | 0.01 | 0.00 | 74 | 1012.7 | |
| 20260502063821 | 52 | 0.0 | 0.0 | 0.00 | 0.01 | 0.00 | 74 | 1012.4 | |
| 20260502063524 | 52 | 0.0 | 0.0 | 0.00 | 0.01 | 0.00 | 74 | 1012.7 | |
| 20260502063338 | 52 | 0.0 | 0.0 | 0.00 | 0.01 | 0.00 | 75 | 1012.5 | |
| 20260502063052 | 52 | 0.0 | 0.0 | 0.00 | 0.01 | 0.00 | 74 | 1012.7 | |
| 20260502062851 | 53 | 0.0 | 0.0 | 0.00 | 0.01 | 0.00 | 74 | 1012.6 | |
| 20260502062525 | 52 | 0.0 | 0.0 | 0.00 | 0.01 | 0.00 | 74 | 1012.8 | |
| 20260502062324 | 53 | 0.0 | 0.0 | 0.00 | 0.01 | 0.00 | 73 | 1012.7 | |
| 20260502062024 | 52 | 0.0 | 0.0 | 0.00 | 0.01 | 0.00 | 74 | 1013.0 | |
| 20260502061817 | 53 | 0.0 | 0.0 | 0.00 | 0.01 | 0.00 | 74 | 1012.7 | |
| 20260502061540 | 52 | 0.0 | 0.0 | 0.00 | 0.01 | 0.00 | 74 | 1013.2 | |
| 20260502061024 | 52 | 0.0 | 0.0 | 0.00 | 0.01 | 0.00 | 74 | 1013.3 | |
| 20260502060852 | 53 | 0.0 | 0.0 | 0.00 | 0.01 | 0.00 | 74 | 1013.0 | |
| 20260502060527 | 52 | 0.0 | 0.0 | 0.00 | 0.01 | 0.00 | 73 | 1013.3 | |
| 20260502060326 | 53 | 0.0 | 0.0 | 0.00 | 0.01 | 0.00 | 73 | 1013.0 | |
| 20260502060044 | 52 | 0.0 | 0.0 | 0.00 | 0.01 | 0.00 | 72 | 1013.3 | |
| 20260502055844 | 53 | 0.0 | 0.0 | 0.00 | 0.01 | 0.00 | 74 | 1013.0 | |
| 20260502055525 | 52 | 0.0 | 0.0 | 0.00 | 0.01 | 0.00 | 72 | 1013.4 | |
| 20260502055340 | 53 | 0.0 | 0.0 | 0.00 | 0.01 | 0.00 | 75 | 1013.0 | |
| 20260502055025 | 52 | 0.0 | 0.0 | 0.00 | 0.01 | 0.00 | 74 | 1013.3 | |
| 20260502054815 | 53 | 0.0 | 0.0 | 0.00 | 0.01 | 0.00 | 75 | 1012.9 | |
| 20260502054538 | 52 | 0.0 | 0.0 | 0.00 | 0.01 | 0.00 | 75 | 1013.3 | |
| 20260502054332 | 52 | 0.0 | 0.0 | 0.00 | 0.01 | 0.00 | 76 | 1013.0 | |
| 20260502054024 | 52 | 0.0 | 0.0 | 0.00 | 0.01 | 0.00 | 78 | 1013.5 | |
| 20260502053824 | 53 | 0.0 | 0.0 | 0.00 | 0.01 | 0.00 | 79 | 1013.1 | |
| 20260502053524 | 52 | 0.0 | 0.0 | 0.00 | 0.01 | 0.00 | 77 | 1013.3 | |
| 20260502053317 | 52 | 0.0 | 0.0 | 0.00 | 0.01 | 0.00 | 78 | 1012.9 | |
| 20260502053037 | 52 | 0.0 | 0.0 | 0.00 | 0.01 | 0.00 | 77 | 1013.2 | |
| 20260502052831 | 52 | 0.0 | 0.0 | 0.00 | 0.01 | 0.00 | 78 | 1012.8 | |
| 20260502052525 | 52 | 0.0 | 0.0 | 0.00 | 0.01 | 0.00 | 81 | 1013.2 | |
| 20260502052326 | 52 | 0.0 | 0.0 | 0.00 | 0.01 | 0.00 | 81 | 1013.0 | |
| 20260502052025 | 52 | 0.0 | 0.0 | 0.00 | 0.01 | 0.00 | 82 | 1013.3 | |
| 20260502051843 | 52 | 0.0 | 0.0 | 0.00 | 0.01 | 0.00 | 83 | 1013.0 | |
| 20260502051537 | 51 | 0.0 | 0.0 | 0.00 | 0.01 | 0.00 | 83 | 1013.2 | |
| 20260502051027 | 52 | 0.0 | 0.0 | 0.00 | 0.01 | 0.00 | 88 | 1013.2 | |
| 20260502050841 | 52 | 0.0 | 0.0 | 0.00 | 0.01 | 0.00 | 89 | 1012.9 | |
| 20260502050525 | 52 | 0.0 | 0.0 | 0.00 | 0.01 | 0.00 | 87 | 1013.3 | |
| 20260502050354 | 52 | 0.0 | 0.0 | 0.00 | 0.01 | 0.00 | 88 | 1013.0 | |
| 20260502050045 | 52 | 0.0 | 0.0 | 0.00 | 0.01 | 0.00 | 88 | 1013.3 | |
| 20260502045828 | 52 | 0.0 | 0.0 | 0.00 | 0.01 | 0.00 | 88 | 1013.0 | |
| 20260502045525 | 52 | 0.0 | 0.0 | 0.00 | 0.01 | 0.00 | 88 | 1013.3 | |
| 20260502045322 | 52 | 0.0 | 0.0 | 0.00 | 0.01 | 0.00 | 89 | 1012.9 | |
| 20260502045024 | 52 | 0.0 | 0.0 | 0.00 | 0.01 | 0.00 | 88 | 1013.3 | |
| 20260502044835 | 52 | 0.0 | 0.0 | 0.00 | 0.01 | 0.00 | 89 | 1012.9 | |
| 20260502044539 | 52 | 0.0 | 0.0 | 0.00 | 0.01 | 0.00 | 88 | 1013.2 | |
| 20260502044329 | 53 | 0.0 | 0.0 | 0.00 | 0.01 | 0.00 | 89 | 1012.9 | |
| 20260502044024 | 52 | 0.0 | 0.0 | 0.00 | 0.01 | 0.00 | 89 | 1013.2 | |
| 20260502043843 | 53 | 0.0 | 0.0 | 0.00 | 0.01 | 0.00 | 89 | 1012.9 | |
| 20260502043524 | 52 | 0.0 | 0.0 | 0.00 | 0.01 | 0.00 | 88 | 1013.2 | |
| 20260502043316 | 53 | 0.0 | 0.0 | 0.00 | 0.01 | 0.00 | 88 | 1012.8 | |
| 20260502043103 | 52 | 0.0 | 0.0 | 0.00 | 0.01 | 0.00 | 88 | 1013.1 | |
| 20260502042850 | 53 | 0.0 | 0.0 | 0.01 | 0.01 | 0.00 | 88 | 1012.7 | |
| 20260502042524 | 52 | 0.0 | 0.0 | 0.01 | 0.01 | 0.00 | 88 | 1013.1 | |
| 20260502042323 | 53 | 0.0 | 0.0 | 0.01 | 0.01 | 0.00 | 88 | 1012.8 | |
| 20260502042024 | 53 | 0.0 | 0.0 | 0.01 | 0.01 | 0.00 | 87 | 1013.2 | |
| 20260502041818 | 53 | 0.0 | 0.0 | 0.01 | 0.01 | 0.00 | 87 | 1012.7 | |
| 20260502041543 | 53 | 0.0 | 0.0 | 0.01 | 0.01 | 0.00 | 87 | 1013.1 | |
| 20260502041313 | 53 | 0.0 | 0.0 | 0.01 | 0.01 | 0.00 | 87 | 1012.7 | |
| 20260502041023 | 53 | 0.0 | 0.0 | 0.01 | 0.01 | 0.00 | 86 | 1013.1 | |
| 20260502040830 | 53 | 0.0 | 0.0 | 0.01 | 0.01 | 0.00 | 86 | 1012.7 | |
| 20260502040523 | 53 | 0.0 | 0.0 | 0.01 | 0.01 | 0.00 | 86 | 1012.9 | |
| 20260502040327 | 54 | 0.0 | 0.0 | 0.01 | 0.01 | 0.00 | 86 | 1012.7 | |
| 20260502040038 | 53 | 0.0 | 0.0 | 0.01 | 0.01 | 0.00 | 85 | 1012.9 | |
| 20260502035820 | 54 | 0.0 | 0.0 | 0.01 | 0.01 | 0.01 | 85 | 1012.6 | |
| 20260502035523 | 54 | 0.0 | 0.0 | 0.01 | 0.01 | 0.01 | 84 | 1012.8 | |
| 20260502035317 | 54 | 0.0 | 0.0 | 0.01 | 0.01 | 0.01 | 84 | 1012.4 | |
| 20260502035023 | 54 | 0.0 | 0.0 | 0.01 | 0.01 | 0.01 | 83 | 1012.8 | |
| 20260502034848 | 55 | 0.0 | 0.0 | 0.01 | 0.01 | 0.01 | 84 | 1012.4 | |
| 20260502034537 | 54 | 0.0 | 0.0 | 0.01 | 0.01 | 0.01 | 83 | 1012.8 | |
| 20260502034325 | 55 | 0.0 | 0.0 | 0.01 | 0.01 | 0.01 | 83 | 1012.6 | |
| 20260502034024 | 55 | 0.0 | 0.0 | 0.01 | 0.01 | 0.01 | 81 | 1012.8 | |
| 20260502033821 | 55 | 0.0 | 0.0 | 0.01 | 0.01 | 0.01 | 80 | 1012.5 | |
| 20260502033522 | 55 | 0.0 | 0.0 | 0.01 | 0.01 | 0.01 | 79 | 1012.8 | |
| 20260502033334 | 56 | 0.0 | 0.0 | 0.01 | 0.01 | 0.01 | 78 | 1012.4 | |
| 20260502033038 | 55 | 0.0 | 0.0 | 0.00 | 0.00 | 0.00 | 76 | 1012.7 | |
| 20260502032825 | 56 | 0.0 | 0.0 | 0.00 | 0.00 | 0.00 | 76 | 1012.2 | |
| 20260502032522 | 56 | 0.0 | 0.0 | 0.00 | 0.00 | 0.00 | 74 | 1012.5 | |
| 20260502032319 | 57 | 0.0 | 0.0 | 0.00 | 0.00 | 0.00 | 74 | 1012.1 | |
| 20260502032022 | 56 | 0.0 | 0.0 | 0.00 | 0.00 | 0.00 | 74 | 1012.4 | |
| 20260502031832 | 57 | 0.0 | 0.0 | 0.00 | 0.00 | 0.00 | 73 | 1012.2 | |
| 20260502031533 | 57 | 0.0 | 0.0 | 0.00 | 0.00 | 0.00 | 71 | 1012.5 | |
| 20260502031330 | 57 | 0.0 | 0.0 | 0.00 | 0.00 | 0.00 | 71 | 1012.1 | |
| 20260502031022 | 57 | 0.0 | 0.0 | 0.00 | 0.00 | 0.00 | 69 | 1012.4 | |
| 20260502030824 | 58 | 0.0 | 0.0 | 0.00 | 0.00 | 0.00 | 67 | 1012.1 | |
| 20260502030521 | 57 | 0.0 | 0.0 | 0.00 | 0.00 | 0.00 | 62 | 1012.3 | |
| 20260502030337 | 58 | 0.0 | 0.0 | 0.00 | 0.00 | 0.00 | 61 | 1012.0 | |
| 20260502030046 | 57 | 0.0 | 0.0 | 0.00 | 0.00 | 0.00 | 60 | 1012.0 | |
| 20260502025830 | 58 | 0.0 | 0.0 | 0.00 | 0.00 | 0.00 | 63 | 1011.7 | |
| 20260502025521 | 57 | 0.0 | 0.0 | 0.00 | 0.00 | 0.00 | 59 | 1011.9 | |
| 20260502025326 | 58 | 0.0 | 0.0 | 0.00 | 0.00 | 0.00 | 59 | 1011.4 | |
| 20260502025025 | 58 | 0.0 | 0.0 | 0.00 | 0.00 | 0.00 | 58 | 1011.7 | |
| 20260502024821 | 58 | 0.0 | 0.0 | 0.00 | 0.00 | 0.00 | 59 | 1011.3 | |
| 20260502024540 | 58 | 0.0 | 0.0 | 0.00 | 0.00 | 0.00 | 58 | 1011.7 | |
| 20260502024317 | 58 | 0.0 | 0.0 | 0.00 | 0.00 | 0.00 | 57 | 1011.4 | |
| 20260502024022 | 58 | 0.0 | 0.0 | 0.00 | 0.00 | 0.00 | 57 | 1011.8 | |
| 20260502023855 | 58 | 0.0 | 0.0 | 0.00 | 0.00 | 0.00 | 58 | 1011.4 | |
| 20260502023522 | 58 | 0.0 | 0.0 | 0.00 | 0.00 | 0.00 | 57 | 1011.8 | |
| 20260502023327 | 59 | 0.0 | 0.0 | 0.00 | 0.00 | 0.00 | 58 | 1011.4 | |
| 20260502023040 | 58 | 0.0 | 0.0 | 0.00 | 0.00 | 0.00 | 57 | 1011.7 | |
| 20260502022841 | 59 | 0.0 | 0.0 | 0.00 | 0.00 | 0.00 | 58 | 1011.5 | |
| 20260502022522 | 58 | 0.0 | 0.0 | 0.00 | 0.00 | 0.00 | 56 | 1011.8 | |
| 20260502022314 | 59 | 0.0 | 0.0 | 0.00 | 0.00 | 0.00 | 56 | 1011.6 | |
| 20260502022025 | 59 | 0.0 | 0.0 | 0.00 | 0.00 | 0.00 | 55 | 1011.8 | |
| 20260502021830 | 59 | 0.0 | 0.0 | 0.00 | 0.00 | 0.00 | 55 | 1011.4 | |
| 20260502021538 | 59 | 0.0 | 0.0 | 0.00 | 0.00 | 0.00 | 54 | 1011.8 | |
| 20260502021325 | 59 | 0.0 | 0.0 | 0.00 | 0.00 | 0.00 | 55 | 1011.5 | |
| 20260502021022 | 59 | 0.0 | 0.0 | 0.00 | 0.00 | 0.00 | 54 | 1011.8 | |
| 20260502020821 | 60 | 0.0 | 0.0 | 0.00 | 0.00 | 0.00 | 56 | 1011.5 | |
| 20260502020526 | 59 | 0.0 | 0.0 | 0.00 | 0.00 | 0.00 | 53 | 1011.9 | |
| 20260502020334 | 60 | 0.0 | 0.0 | 0.00 | 0.00 | 0.00 | 54 | 1011.5 | |
| 20260502020037 | 59 | 0.0 | 0.0 | 0.00 | 0.00 | 0.00 | 53 | 1011.9 | |
| 20260502015828 | 60 | 0.0 | 0.0 | 0.00 | 0.00 | 0.00 | 52 | 1011.6 | |
| 20260502015526 | 59 | 0.0 | 0.0 | 0.00 | 0.00 | 0.00 | 52 | 1011.8 | |
| 20260502015344 | 60 | 0.0 | 0.0 | 0.00 | 0.00 | 0.00 | 52 | 1011.5 | |
| 20260502015025 | 60 | 0.0 | 0.0 | 0.00 | 0.00 | 0.00 | 51 | 1011.9 | |
| 20260502014835 | 60 | 0.0 | 0.0 | 0.00 | 0.00 | 0.00 | 51 | 1011.6 | |
| 20260502014538 | 60 | 0.0 | 0.0 | 0.00 | 0.00 | 0.00 | 51 | 1011.8 | |
| 20260502014331 | 60 | 0.0 | 0.0 | 0.00 | 0.00 | 0.00 | 52 | 1011.3 | |
| 20260502014022 | 60 | 0.0 | 0.0 | 0.00 | 0.00 | 0.00 | 49 | 1011.6 | |
| 20260502013827 | 60 | 0.0 | 0.0 | 0.00 | 0.00 | 0.00 | 50 | 1011.2 | |
| 20260502013522 | 60 | 0.0 | 0.0 | 0.00 | 0.00 | 0.00 | 50 | 1011.5 | |
| 20260502013037 | 60 | 0.0 | 0.0 | 0.00 | 0.00 | 0.00 | 50 | 1011.4 | |
| 20260502012822 | 61 | 0.0 | 0.0 | 0.00 | 0.00 | 0.00 | 50 | 1011.0 | |
| 20260502012522 | 60 | 0.0 | 0.0 | 0.00 | 0.00 | 0.00 | 51 | 1011.3 | |
| 20260502012335 | 61 | 0.0 | 0.0 | 0.00 | 0.00 | 0.00 | 49 | 1010.9 | |
| 20260502012026 | 60 | 0.0 | 0.0 | 0.00 | 0.00 | 0.00 | 49 | 1011.2 | |
| 20260502011848 | 61 | 0.0 | 0.0 | 0.00 | 0.00 | 0.00 | 49 | 1010.7 | |
| 20260502011537 | 60 | 0.0 | 0.0 | 0.00 | 0.00 | 0.00 | 49 | 1011.2 | |
| 20260502011339 | 61 | 0.0 | 0.0 | 0.00 | 0.00 | 0.00 | 49 | 1010.6 | |
| 20260502011022 | 60 | 0.0 | 0.0 | 0.00 | 0.00 | 0.00 | 49 | 1011.1 | |
| 20260502010831 | 61 | 0.0 | 0.0 | 0.00 | 0.00 | 0.00 | 49 | 1010.6 | |
| 20260502010522 | 60 | 0.0 | 0.0 | 0.00 | 0.00 | 0.00 | 48 | 1011.1 | |
| 20260502010326 | 61 | 0.0 | 0.0 | 0.00 | 0.00 | 0.00 | 49 | 1010.5 | |
| 20260502010041 | 60 | 0.0 | 0.0 | 0.00 | 0.00 | 0.00 | 48 | 1011.1 | |
| 20260502005821 | 61 | 0.0 | 0.0 | 0.00 | 0.00 | 0.00 | 49 | 1010.5 | |
| 20260502005522 | 60 | 0.0 | 0.0 | 0.00 | 0.00 | 0.00 | 49 | 1011.1 | |
| 20260502005321 | 61 | 0.0 | 0.0 | 0.00 | 0.00 | 0.00 | 50 | 1010.4 | |
| 20260502005022 | 60 | 0.0 | 0.0 | 0.00 | 0.00 | 0.00 | 48 | 1010.9 | |
| 20260502004835 | 61 | 0.0 | 0.0 | 0.00 | 0.00 | 0.00 | 49 | 1010.3 | |
| 20260502004543 | 60 | 0.0 | 0.0 | 0.00 | 0.00 | 0.00 | 49 | 1010.9 | |
| 20260502004328 | 61 | 0.0 | 0.0 | 0.00 | 0.00 | 0.00 | 49 | 1010.3 | |
| 20260502004022 | 60 | 0.0 | 0.0 | 0.00 | 0.00 | 0.00 | 49 | 1010.7 | |
| 20260502003820 | 61 | 0.0 | 0.0 | 0.00 | 0.00 | 0.00 | 49 | 1010.1 | |
| 20260502003521 | 60 | 0.0 | 0.0 | 0.00 | 0.00 | 0.00 | 50 | 1010.6 | |
| 20260502003336 | 61 | 0.0 | 0.0 | 0.00 | 0.00 | 0.00 | 49 | 1010.1 | |
| 20260502003038 | 60 | 0.0 | 0.0 | 0.00 | 0.00 | 0.00 | 48 | 1010.5 | |
| 20260502002828 | 61 | 0.0 | 0.0 | 0.00 | 0.00 | 0.00 | 48 | 1010.0 | |
| 20260502002521 | 60 | 0.0 | 0.0 | 0.00 | 0.00 | 0.00 | 47 | 1010.5 | |
| 20260502002320 | 61 | 0.0 | 0.0 | 0.00 | 0.00 | 0.00 | 48 | 1009.9 | |
| 20260502002024 | 60 | 0.0 | 0.0 | 0.00 | 0.00 | 0.00 | 48 | 1010.6 | |
| 20260502001834 | 61 | 0.0 | 0.0 | 0.00 | 0.00 | 0.00 | 48 | 1009.9 | |
| 20260502001538 | 61 | 0.0 | 0.0 | 0.00 | 0.00 | 0.00 | 47 | 1010.4 | |
| 20260502001327 | 61 | 0.0 | 0.0 | 0.00 | 0.00 | 0.00 | 48 | 1009.9 | |
| 20260502001023 | 61 | 0.0 | 0.0 | 0.00 | 0.00 | 0.00 | 46 | 1010.4 | |
| 20260502000820 | 61 | 0.0 | 0.0 | 0.00 | 0.00 | 0.00 | 47 | 1009.8 | |
| 20260502000522 | 61 | 0.0 | 0.0 | 0.00 | 0.00 | 0.00 | 46 | 1010.4 | |
| 20260502000355 | 61 | 0.0 | 0.0 | 0.00 | 0.00 | 0.00 | 47 | 1009.9 | |
| 20260502000037 | 61 | 0.0 | 0.0 | 0.00 | 0.00 | 0.00 | 48 | 1010.3 | |
| 20260501235846 | 61 | 0.0 | 0.0 | 0.00 | 0.00 | 0.00 | 48 | 1009.8 | |
| 20260501235522 | 61 | 0.0 | 0.0 | 0.00 | 0.00 | 0.00 | 46 | 1010.3 | |
| 20260501235320 | 61 | 0.0 | 0.0 | 0.00 | 0.00 | 0.00 | 47 | 1009.8 | |
| 20260501235022 | 61 | 0.0 | 0.0 | 0.00 | 0.00 | 0.00 | 48 | 1010.2 | |
| 20260501234833 | 61 | 0.0 | 0.0 | 0.00 | 0.00 | 0.00 | 48 | 1009.7 | |
| 20260501234543 | 61 | 0.0 | 0.0 | 0.00 | 0.00 | 0.00 | 47 | 1010.2 | |
| 20260501234326 | 61 | 0.0 | 0.0 | 0.00 | 0.00 | 0.00 | 47 | 1009.7 | |
| 20260501234022 | 61 | 0.0 | 0.0 | 0.00 | 0.00 | 0.00 | 47 | 1010.2 | |
| 20260501233820 | 62 | 0.0 | 0.0 | 0.00 | 0.00 | 0.00 | 47 | 1009.6 | |
| 20260501233525 | 61 | 0.0 | 0.0 | 0.00 | 0.00 | 0.00 | 46 | 1010.1 | |
| 20260501233316 | 62 | 140 | 0.0 | 4.0 | 0.00 | 0.00 | 0.00 | 48 | 1009.7 |
| 20260501233041 | 61 | 0.0 | 0.0 | 0.00 | 0.00 | 0.00 | 46 | 1010.1 | |
| 20260501232831 | 62 | 140 | 0.0 | 4.0 | 0.00 | 0.00 | 0.00 | 45 | 1009.5 |
| 20260501232522 | 62 | 0 | 0.0 | 4.0 | 0.00 | 0.00 | 0.00 | 45 | 1010.0 |
| 20260501232347 | 62 | 140 | 0.0 | 4.0 | 0.00 | 0.00 | 0.00 | 46 | 1009.6 |
| 20260501232026 | 62 | 0 | 0.0 | 4.0 | 0.00 | 0.00 | 0.00 | 45 | 1010.2 |
| 20260501231820 | 62 | 215 | 1.0 | 4.0 | 0.00 | 0.00 | 0.00 | 45 | 1009.6 |
| 20260501231538 | 62 | 0 | 0.0 | 5.0 | 0.00 | 0.00 | 0.00 | 45 | 1010.1 |
| 20260501231333 | 62 | 167 | 0.0 | 5.0 | 0.00 | 0.00 | 0.00 | 45 | 1009.5 |
| 20260501231022 | 62 | 0 | 0.0 | 7.0 | 0.00 | 0.00 | 0.00 | 44 | 1010.2 |
| 20260501230847 | 62 | 168 | 0.0 | 6.0 | 0.00 | 0.00 | 0.00 | 46 | 1009.7 |
| 20260501230522 | 62 | 0 | 0.0 | 7.0 | 0.00 | 0.00 | 0.00 | 45 | 1010.2 |
| 20260501230319 | 63 | 226 | 1.0 | 6.0 | 0.00 | 0.00 | 0.00 | 44 | 1009.6 |
| 20260501230037 | 62 | 274 | 1.0 | 5.0 | 0.00 | 0.00 | 0.00 | 44 | 1010.2 |
| 20260501225832 | 63 | 205 | 1.0 | 4.0 | 0.00 | 0.00 | 0.00 | 45 | 1009.6 |
| 20260501225525 | 62 | 0 | 0.0 | 6.0 | 0.00 | 0.00 | 0.00 | 44 | 1010.1 |
| 20260501225326 | 63 | 206 | 0.0 | 5.0 | 0.00 | 0.00 | 0.00 | 45 | 1009.6 |
| 20260501225025 | 63 | 199 | 0.0 | 8.0 | 0.00 | 0.00 | 0.00 | 45 | 1010.0 |
| 20260501224838 | 63 | 121 | 1.0 | 7.0 | 0.00 | 0.00 | 0.00 | 46 | 1009.5 |
| 20260501224537 | 63 | 0 | 0.0 | 8.0 | 0.00 | 0.00 | 0.00 | 44 | 1010.2 |
| 20260501224330 | 63 | 199 | 1.0 | 7.0 | 0.00 | 0.00 | 0.00 | 44 | 1009.7 |
| 20260501224022 | 63 | 0 | 1.0 | 7.0 | 0.00 | 0.00 | 0.00 | 45 | 1010.2 |
| 20260501223826 | 63 | 208 | 2.0 | 5.0 | 0.00 | 0.00 | 0.00 | 45 | 1009.7 |
| 20260501223522 | 63 | 0 | 0.0 | 7.0 | 0.00 | 0.00 | 0.00 | 43 | 1010.2 |
| 20260501223319 | 64 | 177 | 0.0 | 6.0 | 0.00 | 0.00 | 0.00 | 43 | 1009.7 |
| 20260501223037 | 63 | 0 | 0.0 | 7.0 | 0.00 | 0.00 | 0.00 | 45 | 1010.2 |
| 20260501222833 | 64 | 104 | 0.0 | 4.0 | 0.00 | 0.00 | 0.00 | 44 | 1009.7 |
| 20260501222523 | 63 | 0 | 0.0 | 7.0 | 0.00 | 0.00 | 0.00 | 44 | 1010.2 |
| 20260501222327 | 64 | 190 | 0.0 | 6.0 | 0.00 | 0.00 | 0.00 | 45 | 1009.8 |
| 20260501222021 | 64 | 0 | 0.0 | 7.0 | 0.00 | 0.00 | 0.00 | 43 | 1010.3 |
| 20260501221819 | 64 | 139 | 0.0 | 6.0 | 0.00 | 0.00 | 0.00 | 42 | 1009.8 |
| 20260501221542 | 64 | 0 | 1.0 | 11.0 | 0.00 | 0.00 | 0.00 | 40 | 1010.3 |
| 20260501221332 | 64 | 167 | 2.0 | 10.0 | 0.00 | 0.00 | 0.00 | 42 | 1009.7 |
| 20260501221025 | 64 | 0 | 0.0 | 11.0 | 0.00 | 0.00 | 0.00 | 41 | 1010.1 |
| 20260501220849 | 64 | 194 | 1.0 | 10.0 | 0.00 | 0.00 | 0.00 | 41 | 1009.8 |
| 20260501220522 | 64 | 0 | 3.0 | 11.0 | 0.00 | 0.00 | 0.00 | 40 | 1010.4 |
| 20260501220323 | 64 | 168 | 2.0 | 8.0 | 0.00 | 0.00 | 0.00 | 43 | 1009.9 |
| 20260501220040 | 64 | 0 | 1.0 | 8.0 | 0.00 | 0.00 | 0.00 | 40 | 1010.4 |
| 20260501215820 | 64 | 264 | 2.0 | 7.0 | 0.00 | 0.00 | 0.00 | 41 | 1009.9 |
| 20260501215522 | 64 | 252 | 0.0 | 6.0 | 0.00 | 0.00 | 0.00 | 40 | 1010.4 |
| 20260501215353 | 64 | 229 | 0.0 | 5.0 | 0.00 | 0.00 | 0.00 | 39 | 1009.9 |
| 20260501215024 | 64 | 0 | 0.0 | 6.0 | 0.00 | 0.00 | 0.00 | 40 | 1010.5 |
| 20260501214846 | 64 | 296 | 0.0 | 5.0 | 0.00 | 0.00 | 0.00 | 40 | 1010.0 |
| 20260501214538 | 64 | 184 | 0.0 | 7.0 | 0.00 | 0.00 | 0.00 | 40 | 1010.5 |
| 20260501214318 | 64 | 75 | 0.0 | 6.0 | 0.00 | 0.00 | 0.00 | 40 | 1010.0 |
| 20260501214025 | 64 | 0 | 0.0 | 7.0 | 0.00 | 0.00 | 0.00 | 40 | 1010.5 |
| 20260501213832 | 64 | 247 | 1.0 | 6.0 | 0.00 | 0.00 | 0.00 | 43 | 1010.0 |
| 20260501213525 | 64 | 184 | 2.0 | 9.0 | 0.00 | 0.00 | 0.00 | 43 | 1010.4 |
| 20260501213330 | 64 | 225 | 2.0 | 8.0 | 0.00 | 0.00 | 0.00 | 41 | 1009.9 |
| 20260501213040 | 64 | 208 | 2.0 | 10.0 | 0.00 | 0.00 | 0.00 | 41 | 1010.6 |
| 20260501212822 | 64 | 170 | 2.0 | 9.0 | 0.00 | 0.00 | 0.00 | 42 | 1010.1 |
| 20260501212526 | 64 | 0 | 1.0 | 10.0 | 0.00 | 0.00 | 0.00 | 40 | 1010.6 |
| 20260501212356 | 64 | 100 | 3.0 | 9.0 | 0.00 | 0.00 | 0.00 | 43 | 1010.2 |
| 20260501212026 | 64 | 203 | 0.0 | 12.0 | 0.00 | 0.00 | 0.00 | 41 | 1010.7 |
| 20260501211828 | 64 | 217 | 1.0 | 11.0 | 0.00 | 0.00 | 0.00 | 43 | 1010.2 |
| 20260501211539 | 64 | 0 | 2.0 | 14.0 | 0.00 | 0.00 | 0.00 | 40 | 1010.7 |
| 20260501211325 | 64 | 160 | 3.0 | 13.0 | 0.00 | 0.00 | 0.00 | 41 | 1010.2 |
| 20260501211026 | 64 | 0 | 2.0 | 14.0 | 0.00 | 0.00 | 0.00 | 41 | 1010.7 |
| 20260501210817 | 64 | 221 | 3.0 | 13.0 | 0.00 | 0.00 | 0.00 | 41 | 1010.2 |
| 20260501210529 | 64 | 0 | 2.0 | 12.0 | 0.00 | 0.00 | 0.00 | 40 | 1010.7 |
| 20260501210332 | 64 | 177 | 2.0 | 9.0 | 0.00 | 0.00 | 0.00 | 42 | 1010.2 |
| 20260501210038 | 64 | 33 | 1.0 | 7.0 | 0.00 | 0.00 | 0.00 | 41 | 1010.6 |
| 20260501205827 | 64 | 200 | 1.0 | 6.0 | 0.00 | 0.00 | 0.00 | 40 | 1010.0 |
| 20260501205526 | 64 | 191 | 0.0 | 9.0 | 0.00 | 0.00 | 0.00 | 40 | 1010.6 |
| 20260501205324 | 64 | 117 | 2.0 | 5.0 | 0.00 | 0.00 | 0.00 | 41 | 1010.1 |
| 20260501205026 | 64 | 0 | 1.0 | 13.0 | 0.00 | 0.00 | 0.00 | 39 | 1010.8 |
| 20260501204817 | 64 | 207 | 1.0 | 12.0 | 0.00 | 0.00 | 0.00 | 40 | 1010.3 |
| 20260501204552 | 63 | 257 | 1.0 | 13.0 | 0.00 | 0.00 | 0.00 | 41 | 1010.7 |
| 20260501204351 | 64 | 226 | 2.0 | 12.0 | 0.00 | 0.00 | 0.00 | 43 | 1010.2 |
| 20260501204026 | 63 | 224 | 4.0 | 11.0 | 0.00 | 0.00 | 0.00 | 40 | 1010.7 |
| 20260501203826 | 64 | 212 | 4.0 | 10.0 | 0.00 | 0.00 | 0.00 | 40 | 1010.1 |
| 20260501203526 | 63 | 197 | 2.0 | 11.0 | 0.00 | 0.00 | 0.00 | 41 | 1010.9 |
| 20260501203324 | 64 | 240 | 2.0 | 9.0 | 0.00 | 0.00 | 0.00 | 39 | 1010.3 |
| 20260501203037 | 63 | 214 | 1.0 | 12.0 | 0.00 | 0.00 | 0.00 | 40 | 1011.0 |
| 20260501202816 | 64 | 202 | 1.0 | 11.0 | 0.00 | 0.00 | 0.00 | 39 | 1010.4 |
| 20260501202526 | 63 | 180 | 5.0 | 12.0 | 0.00 | 0.00 | 0.00 | 40 | 1011.0 |
| 20260501202329 | 64 | 163 | 4.0 | 11.0 | 0.00 | 0.00 | 0.00 | 40 | 1010.7 |
| 20260501202026 | 63 | 0 | 2.0 | 11.0 | 0.00 | 0.00 | 0.00 | 38 | 1011.1 |
| 20260501201822 | 64 | 225 | 3.0 | 8.0 | 0.00 | 0.00 | 0.00 | 38 | 1010.6 |
| 20260501201538 | 63 | 0 | 2.0 | 11.0 | 0.00 | 0.00 | 0.00 | 37 | 1011.2 |
| 20260501201335 | 64 | 194 | 2.0 | 10.0 | 0.00 | 0.00 | 0.00 | 39 | 1010.6 |
| 20260501201027 | 63 | 0 | 1.0 | 11.0 | 0.00 | 0.00 | 0.00 | 38 | 1011.3 |
| 20260501200829 | 64 | 101 | 2.0 | 7.0 | 0.00 | 0.00 | 0.00 | 39 | 1010.8 |
| 20260501200525 | 64 | 0 | 2.0 | 8.0 | 0.00 | 0.00 | 0.00 | 37 | 1011.4 |
| 20260501200326 | 64 | 212 | 1.0 | 5.0 | 0.00 | 0.00 | 0.00 | 37 | 1010.8 |
| 20260501200038 | 64 | 186 | 0.0 | 13.0 | 0.00 | 0.00 | 0.00 | 41 | 1011.5 |
| 20260501195841 | 64 | 196 | 1.0 | 12.0 | 0.00 | 0.00 | 0.00 | 41 | 1011.0 |
| 20260501195530 | 64 | 186 | 2.0 | 13.0 | 0.00 | 0.00 | 0.00 | 40 | 1011.6 |
| 20260501195314 | 64 | 332 | 4.0 | 12.0 | 0.00 | 0.00 | 0.00 | 42 | 1011.1 |
| 20260501195027 | 64 | 0 | 1.0 | 7.0 | 0.00 | 0.00 | 0.00 | 41 | 1011.7 |
| 20260501194830 | 64 | 171 | 2.0 | 5.0 | 0.00 | 0.00 | 0.00 | 43 | 1011.3 |
| 20260501194542 | 64 | 0 | 0.0 | 11.0 | 0.00 | 0.00 | 0.00 | 42 | 1011.8 |
| 20260501194327 | 64 | 145 | 1.0 | 10.0 | 0.00 | 0.00 | 0.00 | 43 | 1011.3 |
| 20260501194026 | 64 | 0 | 1.0 | 11.0 | 0.00 | 0.00 | 0.00 | 46 | 1011.9 |
| 20260501193820 | 64 | 162 | 4.0 | 10.0 | 0.00 | 0.00 | 0.00 | 42 | 1011.3 |
| 20260501193526 | 63 | 0 | 1.0 | 8.0 | 0.00 | 0.00 | 0.00 | 44 | 1011.8 |
| 20260501193317 | 64 | 145 | 1.0 | 8.0 | 0.00 | 0.00 | 0.00 | 45 | 1011.3 |
| 20260501193036 | 63 | 0 | 0.0 | 9.0 | 0.00 | 0.00 | 0.00 | 44 | 1011.9 |
| 20260501192851 | 63 | 198 | 1.0 | 8.0 | 0.00 | 0.00 | 0.00 | 45 | 1011.4 |
| 20260501192526 | 63 | 176 | 0.0 | 9.0 | 0.00 | 0.00 | 0.00 | 42 | 1011.9 |
| 20260501192345 | 63 | 241 | 1.0 | 8.0 | 0.00 | 0.00 | 0.00 | 46 | 1011.6 |
| 20260501192026 | 63 | 239 | 1.0 | 8.0 | 0.00 | 0.00 | 0.00 | 43 | 1012.0 |
| 20260501191819 | 63 | 202 | 1.0 | 5.0 | 0.00 | 0.00 | 0.00 | 43 | 1011.6 |
| 20260501191544 | 63 | 273 | 1.0 | 7.0 | 0.00 | 0.00 | 0.00 | 43 | 1012.1 |
| 20260501191315 | 63 | 221 | 1.0 | 7.0 | 0.00 | 0.00 | 0.00 | 44 | 1011.7 |
| 20260501191026 | 63 | 0 | 0.0 | 7.0 | 0.00 | 0.00 | 0.00 | 42 | 1012.0 |
| 20260501190813 | 63 | 215 | 2.0 | 7.0 | 0.00 | 0.00 | 0.00 | 43 | 1011.8 |
| 20260501190526 | 63 | 0 | 1.0 | 8.0 | 0.00 | 0.00 | 0.00 | 43 | 1012.2 |
| 20260501190329 | 64 | 210 | 1.0 | 7.0 | 0.00 | 0.00 | 0.00 | 45 | 1011.8 |
| 20260501190044 | 63 | 0 | 0.0 | 12.0 | 0.00 | 0.00 | 0.00 | 43 | 1012.3 |
| 20260501185822 | 64 | 106 | 0.0 | 11.0 | 0.00 | 0.00 | 0.00 | 45 | 1011.9 |